Find NATO 3B

NORAD ID: 9785 Int'l Des: 1977-005 Owner: NICS Country: I-NATO operational
HEOCIRCULAR

Aktuelle Ansicht

3D-Globus wird geladen...

About NATO 3B

NATO 3B (NORAD 9785) is a satellite by NICS of I-NATO. It operates in HEO, CIRCULAR orbit

Über NATO 3B

Beschreibung wird geladen...

Nächste Überflüge

Passes for default location (London). Set your location on the main map for personalized predictions.

Höhenverlauf

Loading altitude history...

Zweizeiliger Elementsatz

1 9785U 77005A 26160.93185977 -.00000074 00000-0 00000+0 0 9993
2 9785 8.2217 311.1377 0041835 51.5162 330.9266 0.95269146116600
Epoch: 9. Juni 2026 • Age: 13 hours

Aktueller Status

Höhe 37410.5 km
Geschwindigkeit 3.01 km/s
Subsatellitenpunkt -3.30°S, 90.29°E
Typ other

Most Searched